Location: Six Mile Lake
(44.9000°N, 79.7170°W)
Time: 06:34:21
(UTC-04:00)

EO-79 - Pass Details

Date: 03 July 2022
Orbit: 588 x 603 km, 98.0° (Epoch: 14 August)

Event Time Altitude Azimuth Distance (km) Brightness Sun altitude
Rises 02:08:11 0° 27° (NNE) 2,857 ? -21.4°
Reaches altitude 10° 02:10:48 10° 43° (NE) 1,951 ? -21.3°
Maximum altitude 02:14:04 21° 94° (E) 1,351 ? -21.2°
Enters shadow 02:15:21 19° 119° (ESE) 1,456 ? -21.1°
